Location: Bridgewater
(44.3670°N, 64.5170°W)
Time: 05:37:48
(UTC-03:00)

Amateur Radio Satellites - All Passes

Search period start: 21 September 2017 05:07
Search period end: 22 September 2017 05:07
Location: Bridgewater, 44.3670°N, 64.5170°W

Satellite Date Start Highest point End Downlink Frequencies (MHz)
Time Altitude Azimuth
nSIGHT-1 21 Sep 05:16:55 05:19:50 30° 221° (SW) 05:22:44 .
STARS 21 Sep 05:29:08 05:33:08 37° 69° (ENE) 05:37:10 437.465
DOVE 4 21 Sep 05:30:30 05:32:41 14° 91° (E) 05:34:52 437.250
BEESAT 3 21 Sep 05:41:10 05:45:11 78° 55° (NE) 05:49:07 437.485
BEESAT 2 21 Sep 05:41:23 05:44:58 29° 45° (NE) 05:48:31 435.950
ITAMSAT 1 21 Sep 05:41:41 05:46:42 49° 291° (WNW) 05:51:42 435.822/435.867
AO-85 21 Sep 05:50:57 05:55:06 41° 49° (NE) 05:59:34 145.980
ISS 21 Sep 06:09:09 06:10:33 12° 229° (SW) 06:11:55 437.550
CUBESAT XI-V 21 Sep 06:10:24 06:13:16 16° 270° (W) 06:16:08 437.345
XW-2C 21 Sep 06:22:04 06:23:46 13° 90° (E) 06:25:28 145.795 - 145.815
STRAND 1 21 Sep 06:26:27 06:29:31 16° 59° (ENE) 06:32:36 437.568
LilacSat-2 21 Sep 06:29:58 06:32:32 17° 92° (E) 06:35:02 437.200
KKS-1 21 Sep 06:33:25 06:36:44 21° 266° (W) 06:40:05 437.445
NUDT-PHONESAT 21 Sep 06:36:47 06:38:35 13° 91° (E) 06:40:23 437.300
RS-15 21 Sep 06:45:40 06:57:54 78° 120° (ESE) 07:10:11 29.354- 29.394
AO-7 21 Sep 06:49:09 06:56:08 32° 306° (NW) 07:03:06 .
KAITUO 1B 21 Sep 06:59:19 07:02:27 25° 95° (E) 07:05:33 145.475/437.950
STARS 21 Sep 07:06:12 07:09:35 22° 266° (W) 07:12:58 437.465
DOVE 4 21 Sep 07:06:36 07:10:42 55° 287° (WNW) 07:14:56 437.250
CUTE-I 21 Sep 07:08:05 07:13:00 37° 97° (E) 07:17:54 437.470
BEESAT 2 21 Sep 07:19:05 07:22:42 32° 244° (WSW) 07:26:16 435.950
XW-2D 21 Sep 07:21:00 07:24:49 65° 101° (E) 07:28:35 145.860 - 145.880
BEESAT 3 21 Sep 07:21:33 07:22:05 10° 252° (WSW) 07:22:37 437.485
CUTE 1.7 + AOD 2 21 Sep 07:24:24 07:26:39 14° 90° (E) 07:28:55 437.475
HO-68 21 Sep 07:27:25 07:33:03 24° 92° (E) 07:38:39 435.675
AO-85 21 Sep 07:31:38 07:35:22 26° 245° (WSW) 07:39:20 145.980
XW-2B 21 Sep 07:33:15 07:37:05 88° 101° (E) 07:40:53 145.730 - 145.750
XW-2F 21 Sep 07:35:41 07:39:31 89° 85° (E) 07:43:17 145.980 - 146.000
FO-29 21 Sep 07:48:25 07:50:26 12° 57° (ENE) 07:52:25 435.910
XW-2C 21 Sep 07:54:32 07:58:15 50° 287° (WNW) 08:01:56 145.795 - 145.815
STRAND 1 21 Sep 08:03:01 08:08:06 74° 257° (WSW) 08:13:13 437.568
LilacSat-2 21 Sep 08:03:22 08:06:56 37° 289° (WNW) 08:10:28 437.200
NUDT-PHONESAT 21 Sep 08:09:07 08:12:42 45° 288° (WNW) 08:16:16 437.300
AO-73 21 Sep 08:29:32 08:31:26 12° 88° (E) 08:33:20 145.935
ZACube-1 21 Sep 08:30:03 08:32:33 14° 89° (E) 08:35:00 437.345
KAITUO 1B 21 Sep 08:33:17 08:36:22 24° 292° (WNW) 08:39:24 145.475/437.950
SEEDS 21 Sep 08:36:20 08:40:27 52° 100° (E) 08:44:31 437.485
CUTE-I 21 Sep 08:48:17 08:52:57 32° 295° (WNW) 08:57:37 437.470
UNISAT 6 21 Sep 08:51:43 08:53:10 11° 59° (ENE) 08:54:37 437.425
CUBEBUG 2 21 Sep 08:57:16 09:01:57 80° 102° (ESE) 09:06:42 437.445
XW-2D 21 Sep 08:57:18 08:58:27 11° 298° (WNW) 08:59:35 145.860 - 145.880
CUTE 1.7 + AOD 2 21 Sep 08:58:41 09:02:51 55° 287° (WNW) 09:06:57 437.475
RS-15 21 Sep 09:00:02 09:11:36 43° 326° (NW) 09:23:06 29.354- 29.394
AAUSAT CUBESAT 2 21 Sep 09:07:56 09:11:58 52° 99° (E) 09:15:58 437.432
XW-2A 21 Sep 09:08:53 09:12:21 85° 283° (WNW) 09:15:46 145.665 - 145.685
UWE-3 21 Sep 09:10:22 09:15:01 65° 101° (ESE) 09:19:39 435.000/436.395/437.385
HO-68 21 Sep 09:14:12 09:21:21 70° 290° (WNW) 09:28:28 435.675
TIGRISAT 21 Sep 09:14:34 09:17:28 18° 63° (ENE) 09:20:25 435.000
FO-29 21 Sep 09:29:00 09:34:49 80° 75° (ENE) 09:40:08 435.910
AO-73 21 Sep 10:03:34 10:08:09 73° 286° (WNW) 10:12:42 145.935
ZACube-1 21 Sep 10:04:40 10:09:13 64° 286° (WNW) 10:13:44 437.345
Oscar 11 21 Sep 10:06:06 10:10:29 86° 104° (ESE) 10:14:49 .
SEEDS 21 Sep 10:13:11 10:15:42 16° 297° (WNW) 10:18:12 437.485
UNISAT 6 21 Sep 10:24:51 10:29:10 83° 258° (WSW) 10:33:37 437.425
CUBEBUG 2 21 Sep 10:35:42 10:37:57 13° 299° (WNW) 10:40:12 437.445
PRISM 21 Sep 10:39:05 10:43:11 81° 75° (ENE) 10:47:18 437.425
EO-88 21 Sep 10:41:21 10:44:28 25° 95° (E) 10:47:32 145.990 - 145.960
AAUSAT CUBESAT 2 21 Sep 10:44:36 10:47:00 15° 297° (WNW) 10:49:23 437.432
UWE-3 21 Sep 10:48:09 10:50:56 16° 298° (WNW) 10:53:44 435.000/436.395/437.385
TIGRISAT 21 Sep 10:49:35 10:53:46 49° 261° (W) 10:58:04 435.000
AIST 2D 21 Sep 10:52:02 10:54:38 19° 68° (ENE) 10:57:16 435.315
DELFI C3 21 Sep 11:02:42 11:06:38 87° 108° (ESE) 11:10:32 145.870
HO-68 21 Sep 11:03:52 11:07:50 16° 311° (NW) 11:11:47 435.675
Max Valier Satellite 21 Sep 11:07:26 11:11:12 75° 102° (ESE) 11:14:55 145.860
NANOSAT C BR1 21 Sep 11:09:51 11:12:07 14° 62° (ENE) 11:14:23 145.865
FO-29 21 Sep 11:17:40 11:20:28 14° 270° (W) 11:23:10 435.910
RS-15 21 Sep 11:18:17 11:28:26 28° 359° (N) 11:38:18 29.354- 29.394
DUCHIFAT 1 21 Sep 11:38:34 11:41:57 24° 66° (ENE) 11:45:21 145.980
Oscar 11 21 Sep 11:44:47 11:45:55 11° 301° (WNW) 11:47:04 .
LO-87 21 Sep 11:46:58 11:49:43 20° 94° (E) 11:52:28 145.935 - 145.965
POLYITAN 1 21 Sep 11:47:27 11:51:20 37° 70° (ENE) 11:55:16 437.675
ESTCUBE 1 21 Sep 11:49:19 11:52:18 17° 91° (E) 11:55:15 437.505/2401.250
EO-79 21 Sep 11:52:28 11:56:26 42° 71° (ENE) 12:00:26 145.935-145.965
QB50P2 21 Sep 12:04:50 12:09:00 64° 74° (ENE) 12:13:12 145.880/145.840
YUBILEINY 21 Sep 12:05:22 12:12:20 28° 81° (E) 12:19:17 435.215
EO-88 21 Sep 12:15:06 12:18:00 22° 292° (WNW) 12:20:53 145.990 - 145.960
AIST 2D 21 Sep 12:24:34 12:27:39 28° 264° (W) 12:30:46 435.315
BUGSAT 1 21 Sep 12:25:14 12:28:16 21° 65° (ENE) 12:31:19 437.445
M-CUBED/EXP-1 PRIME 21 Sep 12:33:25 12:37:44 69° 70° (ENE) 12:41:47 437.505
NANOSAT C BR1 21 Sep 12:43:13 12:47:20 59° 260° (W) 12:51:31 145.865
Oscar 19 21 Sep 12:45:04 12:48:59 22° 62° (ENE) 12:52:56 437.125/150
O/OREOS (USA 219) 21 Sep 12:49:49 12:54:16 46° 61° (ENE) 12:58:42 437.305
SPROUT 21 Sep 12:50:20 12:53:23 19° 93° (E) 12:56:25 437.525
DUCHIFAT 1 21 Sep 13:13:45 13:17:28 31° 264° (W) 13:21:14 145.980
LO-87 21 Sep 13:20:04 13:23:08 27° 291° (WNW) 13:26:12 145.935 - 145.965
POLYITAN 1 21 Sep 13:24:07 13:27:15 20° 267° (W) 13:30:25 437.675
ESTCUBE 1 21 Sep 13:25:01 13:29:23 50° 288° (WNW) 13:33:43 437.505/2401.250
EO-79 21 Sep 13:29:31 13:32:23 18° 268° (W) 13:35:17 145.935-145.965
RS-15 21 Sep 13:33:51 13:45:15 43° 33° (NNE) 13:56:06 29.354- 29.394
QB50P2 21 Sep 13:43:35 13:45:13 12° 271° (W) 13:46:52 145.880/145.840
50 SAT 21 Sep 13:44:59 13:46:48 14° 93° (E) 13:48:35 437.505
Gurwin Techsat 1B 21 Sep 13:46:31 13:51:38 51° 70° (ENE) 13:56:47 435.225
DX 1 21 Sep 13:48:13 13:50:42 15° 91° (E) 13:53:10 434.975-435.025
YUBILEINY 21 Sep 13:59:44 14:08:23 67° 281° (WNW) 14:17:05 435.215
BUGSAT 1 21 Sep 13:59:44 14:03:24 34° 263° (W) 14:07:08 437.445
VELOX 1 21 Sep 14:05:34 14:09:59 84° 104° (ESE) 14:14:22 145.980
AO-7 21 Sep 14:05:58 14:12:33 27° 52° (NE) 14:19:07 .
M-CUBED/EXP-1 PRIME 21 Sep 14:10:42 14:12:27 12° 263° (W) 14:14:09 437.505
Oscar 19 21 Sep 14:22:51 14:27:55 54° 260° (W) 14:33:02 437.125/150
SPROUT 21 Sep 14:25:24 14:29:28 42° 289° (WNW) 14:33:30 437.525
O/OREOS (USA 219) 21 Sep 14:30:01 14:33:21 20° 259° (W) 14:36:39 437.305
SO-50 21 Sep 14:41:37 14:45:16 25° 114° (ESE) 14:48:56 436.795
PCSat 21 Sep 14:46:07 14:49:32 17° 105° (ESE) 14:52:58 145.827
NO-84 21 Sep 14:49:31 14:53:17 72° 139° (SE) 14:56:44 435.350 FM
BEESAT 21 Sep 15:15:11 15:15:56 10° 88° (E) 15:16:41 436.000
50 SAT 21 Sep 15:16:24 15:19:25 32° 289° (WNW) 15:22:24 437.505
UKube-1 21 Sep 15:21:24 15:25:45 86° 279° (W) 15:30:02 .
ITAMSAT 1 21 Sep 15:22:12 15:27:01 41° 68° (ENE) 15:31:51 435.822/435.867
DX 1 21 Sep 15:22:58 15:27:13 54° 288° (WNW) 15:31:26 434.975-435.025
Gurwin Techsat 1B 21 Sep 15:27:45 15:31:51 22° 267° (W) 15:35:59 435.225
VELOX 1 21 Sep 15:44:21 15:45:45 11° 301° (WNW) 15:47:09 145.980
RS-15 21 Sep 15:46:53 15:58:53 77° 241° (WSW) 16:10:11 29.354- 29.394
AO-7 21 Sep 15:56:07 16:04:28 81° 252° (WSW) 16:12:51 .
YUBILEINY 21 Sep 16:02:33 16:07:08 15° 306° (NW) 16:11:45 435.215
MOZHAYETS 4 21 Sep 16:06:26 16:10:42 35° 97° (E) 16:14:56
ITUPSAT 1 21 Sep 16:11:17 16:15:48 38° 98° (E) 16:20:15 437.325
SO-50 21 Sep 16:21:14 16:25:30 42° 312° (NW) 16:29:49 436.795
PCSat 21 Sep 16:26:53 16:32:17 73° 303° (WNW) 16:37:45 145.827
CUBESAT XI-V 21 Sep 16:27:35 16:29:39 13° 88° (E) 16:31:44 437.345
NO-84 21 Sep 16:28:01 16:30:56 23° 337° (NNW) 16:33:39 435.350 FM
DOVE 4 21 Sep 16:37:26 16:40:27 18° 65° (ENE) 16:43:23 437.250
BEESAT 21 Sep 16:49:32 16:54:22 90° 279° (W) 16:59:09 436.000
CUTE-I 21 Sep 16:56:08 16:57:34 11° 54° (NE) 16:59:01 437.470
ITAMSAT 1 21 Sep 17:02:16 17:06:36 27° 265° (W) 17:10:58 435.822/435.867
LilacSat-2 21 Sep 17:14:32 17:16:02 12° 62° (ENE) 17:17:32 437.200
KAITUO 1B 21 Sep 17:41:20 17:43:43 16° 65° (ENE) 17:46:08 145.475/437.950
MOZHAYETS 4 21 Sep 17:43:50 17:47:42 27° 294° (WNW) 17:51:33
ITUPSAT 1 21 Sep 17:49:26 17:53:26 27° 295° (WNW) 17:57:25 437.325
AO-7 21 Sep 17:53:28 17:58:27 17° 272° (W) 18:03:28 .
HO-68 21 Sep 17:58:41 18:04:01 23° 55° (NE) 18:09:21 435.675
RS-15 21 Sep 18:01:46 18:09:07 19° 263° (W) 18:16:16 29.354- 29.394
CUBESAT XI-V 21 Sep 18:02:54 18:07:32 70° 287° (WNW) 18:12:07 437.345
XW-2D 21 Sep 18:03:25 18:06:59 38° 71° (ENE) 18:10:35 145.860 - 145.880
SO-50 21 Sep 18:06:22 18:07:10 10° 334° (NNW) 18:07:57 436.795
NO-84 21 Sep 18:07:41 18:09:13 13° 358° (N) 18:10:44 435.350 FM
PCSat 21 Sep 18:13:16 18:16:39 16° 324° (NW) 18:20:04 145.827
DOVE 4 21 Sep 18:13:33 18:17:52 46° 261° (W) 18:22:00 437.250
XW-2B 21 Sep 18:15:30 18:19:14 51° 74° (ENE) 18:22:59 145.730 - 145.750
XW-2F 21 Sep 18:17:31 18:21:14 51° 74° (ENE) 18:24:59 145.980 - 146.000
CUTE 1.7 + AOD 2 21 Sep 18:19:01 18:21:10 14° 62° (ENE) 18:23:19 437.475
KKS-1 21 Sep 18:21:05 18:25:30 64° 102° (ESE) 18:29:55 437.445
BEESAT 21 Sep 18:29:28 18:31:23 12° 303° (WNW) 18:33:19 436.000
CUTE-I 21 Sep 18:31:23 18:36:39 70° 73° (ENE) 18:41:57 437.470
XW-2C 21 Sep 18:36:35 18:40:26 87° 260° (W) 18:44:19 145.795 - 145.815
LilacSat-2 21 Sep 18:45:57 18:49:47 62° 259° (W) 18:53:40 437.200
NUDT-PHONESAT 21 Sep 18:48:59 18:52:43 86° 258° (WSW) 18:56:31 437.300
STARS 21 Sep 18:52:24 18:56:45 57° 101° (E) 19:01:05 437.465
KAITUO 1B 21 Sep 19:13:48 19:17:23 40° 262° (W) 19:21:01 145.475/437.950
AO-73 21 Sep 19:27:08 19:28:50 12° 59° (ENE) 19:30:33 145.935
ZACube-1 21 Sep 19:27:55 19:30:08 14° 61° (ENE) 19:32:21 437.345
SEEDS 21 Sep 19:29:06 19:33:07 43° 72° (ENE) 19:37:09 437.485
XW-2D 21 Sep 19:38:49 19:41:19 17° 268° (W) 19:43:50 145.860 - 145.880
XW-2A 21 Sep 19:41:16 19:44:26 37° 72° (ENE) 19:47:38 145.665 - 145.685
HO-68 21 Sep 19:43:50 19:50:59 80° 254° (WSW) 19:58:12 435.675
NO-84 21 Sep 19:45:15 19:47:36 19° 20° (NNE) 19:49:51 435.350 FM
XW-2B 21 Sep 19:51:59 19:53:43 13° 270° (W) 19:55:26 145.730 - 145.750
CUTE 1.7 + AOD 2 21 Sep 19:52:12 19:56:27 66° 259° (WSW) 20:00:45 437.475
XW-2F 21 Sep 19:53:59 19:55:39 12° 270° (W) 19:57:20 145.980 - 146.000
CUBEBUG 2 21 Sep 19:56:43 20:00:56 77° 74° (ENE) 20:05:19 437.445
KKS-1 21 Sep 19:59:04 20:01:33 15° 299° (WNW) 20:04:02 437.445
AAUSAT CUBESAT 2 21 Sep 19:59:09 20:03:04 41° 71° (ENE) 20:07:00 437.432
UWE-3 21 Sep 20:08:38 20:12:49 60° 74° (ENE) 20:17:11 435.000/436.395/437.385
STRAND 1 21 Sep 20:12:00 20:16:39 33° 96° (E) 20:21:16 437.568
Tancredo 1 21 Sep 20:13:07 20:14:43 15° 135° (SE) 20:16:19 437.200
CUTE-I 21 Sep 20:14:01 20:17:13 16° 270° (W) 20:20:27 437.470
STARS 21 Sep 20:29:56 20:32:38 16° 298° (WNW) 20:35:21 437.465
AO-73 21 Sep 21:00:04 21:04:23 79° 257° (WSW) 21:08:50 145.935
ZACube-1 21 Sep 21:01:32 21:05:49 68° 259° (W) 21:10:15 437.345
Oscar 11 21 Sep 21:01:54 21:06:15 79° 74° (ENE) 21:10:38 .
SEEDS 21 Sep 21:06:06 21:09:00 18° 268° (W) 21:11:54 437.485
BEESAT 3 21 Sep 21:08:49 21:12:49 81° 123° (ESE) 21:16:53 437.485
BEESAT 2 21 Sep 21:11:21 21:14:44 27° 115° (ESE) 21:18:11 435.950
ISS 21 Sep 21:14:08 21:15:20 12° 131° (SE) 21:16:31 437.550
XW-2A 21 Sep 21:15:37 21:17:19 13° 269° (W) 21:19:02 145.665 - 145.685
EO-88 21 Sep 21:21:16 21:23:28 15° 65° (ENE) 21:25:41 145.990 - 145.960
NO-84 21 Sep 21:22:17 21:25:16 71° 219° (SW) 21:28:06 435.350 FM
AAUSAT CUBESAT 2 21 Sep 21:35:51 21:38:42 18° 268° (W) 21:41:35 437.432
HO-68 21 Sep 21:36:08 21:39:48 14° 273° (W) 21:43:28 435.675
CUBEBUG 2 21 Sep 21:38:04 21:38:10 10° 273° (W) 21:38:15 437.445
Tancredo 1 21 Sep 21:46:18 21:48:58 60° 332° (NNW) 21:51:39 437.200
AO-85 21 Sep 21:47:10 21:51:02 68° 122° (ESE) 21:54:57 145.980
Max Valier Satellite 21 Sep 21:47:29 21:50:57 39° 72° (ENE) 21:54:28 145.860
UWE-3 21 Sep 21:47:37 21:49:44 13° 271° (W) 21:51:52 435.000/436.395/437.385
DELFI C3 21 Sep 21:49:00 21:52:53 58° 74° (ENE) 21:56:47 145.870
STRAND 1 21 Sep 21:51:12 21:55:47 33° 294° (WNW) 22:00:21 437.568
nSIGHT-1 21 Sep 21:56:00 21:58:53 30° 139° (SE) 22:01:47 .
YUBILEINY 21 Sep 22:13:01 22:17:42 15° 55° (NE) 22:22:21 435.215
UNISAT 6 21 Sep 22:15:19 22:18:43 20° 92° (E) 22:22:07 437.425
FO-29 21 Sep 22:20:01 22:25:22 59° 102° (ESE) 22:31:14 435.910
LO-87 21 Sep 22:26:03 22:27:15 11° 63° (ENE) 22:28:28 145.935 - 145.965
TIGRISAT 21 Sep 22:39:07 22:43:16 31° 96° (E) 22:47:25 435.000
Oscar 11 21 Sep 22:42:20 22:42:55 10° 272° (W) 22:43:32 .
ISS 21 Sep 22:48:02 22:51:18 83° 150° (SSE) 22:54:37 437.550
BEESAT 3 21 Sep 22:48:25 22:50:54 16° 323° (NW) 22:53:24 437.485
BEESAT 2 21 Sep 22:48:43 22:52:23 33° 313° (NW) 22:56:06 435.950
ESTCUBE 1 21 Sep 22:50:18 22:53:37 20° 64° (ENE) 22:56:57 437.505/2401.250
EO-88 21 Sep 22:53:21 22:56:48 40° 262° (W) 23:00:18 145.990 - 145.960
SO-50 21 Sep 23:10:19 23:14:37 38° 47° (NE) 23:18:57 436.795
Tancredo 1 21 Sep 23:21:50 23:23:54 19° 351° (N) 23:25:58 437.200
Max Valier Satellite 21 Sep 23:22:48 23:24:58 15° 269° (W) 23:27:09 145.860
DELFI C3 21 Sep 23:26:35 23:28:00 12° 270° (W) 23:29:25 145.870
AO-85 21 Sep 23:29:20 23:31:51 16° 322° (NW) 23:34:26 145.980
PCSat 21 Sep 23:30:21 23:34:46 24° 43° (NE) 23:39:09 145.827
VELOX 1 21 Sep 23:31:34 23:32:35 11° 58° (ENE) 23:33:36 145.980
nSIGHT-1 21 Sep 23:32:01 23:35:08 44° 337° (NNW) 23:38:16 .
SPROUT 21 Sep 23:45:25 23:48:18 18° 64° (ENE) 23:51:13 437.525
AIST 2D 21 Sep 23:48:02 23:50:32 18° 93° (E) 23:53:01 435.315
UNISAT 6 21 Sep 23:51:09 23:55:38 47° 289° (WNW) 00:00:07 437.425
PRISM 21 Sep 23:53:43 23:57:47 77° 285° (WNW) 00:01:50 437.425
LO-87 21 Sep 23:56:47 00:00:13 52° 260° (W) 00:03:42 145.935 - 145.965
FO-29 22 Sep 00:06:12 00:10:09 21° 298° (WNW) 00:14:20 435.910
YUBILEINY 22 Sep 00:07:43 00:16:25 68° 78° (ENE) 00:25:07 435.215
TIGRISAT 22 Sep 00:15:48 00:19:53 30° 292° (WNW) 00:23:58 435.000
ISS 22 Sep 00:25:11 00:28:05 27° 347° (NNW) 00:30:58 437.550
ESTCUBE 1 22 Sep 00:25:44 00:30:06 46° 261° (W) 00:34:29 437.505/2401.250
NANOSAT C BR1 22 Sep 00:26:23 00:29:29 19° 93° (E) 00:32:33 145.865
UKube-1 22 Sep 00:44:38 00:45:54 11° 59° (ENE) 00:47:10 .
DX 1 22 Sep 00:45:17 00:48:07 17° 63° (ENE) 00:50:57 434.975-435.025
SO-50 22 Sep 00:50:59 00:54:57 29° 245° (WSW) 00:58:57 436.795
DUCHIFAT 1 22 Sep 00:55:28 00:59:22 34° 97° (E) 01:03:14 145.980
Tancredo 1 22 Sep 00:56:59 00:59:06 20° 11° (N) 01:01:13 437.200
VELOX 1 22 Sep 01:03:54 01:08:19 90° 74° (ENE) 01:12:45 145.980
POLYITAN 1 22 Sep 01:05:43 01:09:57 56° 101° (E) 01:14:10 437.675
nSIGHT-1 22 Sep 01:09:24 01:12:01 22° 357° (N) 01:14:40 .
EO-79 22 Sep 01:10:37 01:14:53 64° 101° (E) 01:19:08 145.935-145.965
PCSat 22 Sep 01:13:14 01:18:37 65° 243° (WSW) 01:23:58 145.827
SPROUT 22 Sep 01:19:48 01:23:52 45° 261° (W) 01:27:58 437.525
AIST 2D 22 Sep 01:20:40 01:23:46 28° 290° (WNW) 01:26:49 435.315
QB50P2 22 Sep 01:23:27 01:27:45 84° 282° (WNW) 01:32:02 145.880/145.840
BUGSAT 1 22 Sep 01:39:23 01:43:01 28° 96° (E) 01:46:40 437.445
M-CUBED/EXP-1 PRIME 22 Sep 01:45:05 01:48:04 29° 102° (ESE) 01:50:58 437.505
50 SAT 22 Sep 01:47:00 01:50:18 83° 258° (WSW) 01:53:38 437.505
NANOSAT C BR1 22 Sep 02:01:20 02:05:21 40° 289° (WNW) 02:09:20 145.865
Gurwin Techsat 1B 22 Sep 02:02:04 02:05:32 17° 90° (E) 02:08:59 435.225
ISS 22 Sep 02:02:30 02:05:15 23° 7° (N) 02:07:59 437.550
YUBILEINY 22 Sep 02:05:31 02:12:29 28° 279° (W) 02:19:28 435.215
UKube-1 22 Sep 02:16:57 02:21:14 84° 253° (WSW) 02:25:35 .
DX 1 22 Sep 02:19:41 02:23:55 51° 260° (W) 02:28:10 434.975-435.025
BEESAT 22 Sep 02:21:50 02:24:47 17° 60° (ENE) 02:27:44 436.000
Tancredo 1 22 Sep 02:31:16 02:33:59 74° 29° (NNE) 02:36:41 437.200
DUCHIFAT 1 22 Sep 02:31:28 02:34:51 23° 294° (WNW) 02:38:13 145.980
Oscar 19 22 Sep 02:32:39 02:37:39 47° 99° (E) 02:42:35 437.125/150
POLYITAN 1 22 Sep 02:42:44 02:45:17 16° 298° (WNW) 02:47:50 437.675
nSIGHT-1 22 Sep 02:46:03 02:49:01 31° 17° (NNE) 02:51:59 .
EO-79 22 Sep 02:47:55 02:50:08 14° 298° (WNW) 02:52:19 145.935-145.965
O/OREOS (USA 219) 22 Sep 03:03:49 03:07:58 38° 106° (ESE) 03:12:11 437.305
MOZHAYETS 4 22 Sep 03:09:34 03:13:52 40° 70° (ENE) 03:18:13
BUGSAT 1 22 Sep 03:14:44 03:18:18 27° 292° (WNW) 03:21:53 437.445
ITUPSAT 1 22 Sep 03:19:19 03:23:57 53° 71° (ENE) 03:28:38 437.325
M-CUBED/EXP-1 PRIME 22 Sep 03:20:06 03:22:19 17° 300° (WNW) 03:24:30 437.505
CUBESAT XI-V 22 Sep 03:32:05 03:35:05 17° 62° (ENE) 03:38:04 437.345
ITAMSAT 1 22 Sep 03:35:18 03:37:16 12° 88° (E) 03:39:13 435.822/435.867
ISS 22 Sep 03:38:56 03:42:12 57° 26° (NNE) 03:45:27 437.550
Gurwin Techsat 1B 22 Sep 03:40:40 03:45:57 65° 288° (WNW) 03:51:12 435.225
BEESAT 3 22 Sep 03:47:54 03:49:48 13° 35° (NE) 03:51:40 437.485
AO-7 22 Sep 03:56:26 04:03:34 31° 95° (E) 04:10:37 .
BEESAT 22 Sep 03:57:18 04:02:02 65° 258° (WSW) 04:06:48 436.000
RS-15 22 Sep 04:06:38 04:12:10 14° 93° (E) 04:17:42 29.354- 29.394
Tancredo 1 22 Sep 04:07:03 04:08:09 12° 226° (SW) 04:09:15 437.200
Oscar 19 22 Sep 04:12:32 04:16:40 25° 297° (WNW) 04:20:47 437.125/150
nSIGHT-1 22 Sep 04:22:17 04:25:31 58° 215° (SW) 04:28:43 .
AO-85 22 Sep 04:36:35 04:39:23 16° 38° (NE) 04:42:18 145.980
O/OREOS (USA 219) 22 Sep 04:43:46 04:47:30 25° 305° (NW) 04:51:16 437.305
MOZHAYETS 4 22 Sep 04:47:33 04:51:09 22° 267° (W) 04:54:47
ITUPSAT 1 22 Sep 04:58:50 05:02:06 18° 268° (W) 05:05:22 437.325
